Regional Weather Roundup
Issued by NWS Albany, NY

Home | Current Version | Previous Version | Text Only | Print | Product List | Glossary On
Versions: 1 2 3 4 5 6 7 8 9 10 11 12 13 14 15 16 17 18 19 20 21 22 23 24 25 26 27 28 29 30 31 32 33 34 35 36 37 38 39 40 41 42 43 44 45 46 47 48 49 50
000
ASUS41 KALY 021910
RWRALY

NEW YORK STATE HOURLY WEATHER ROUNDUP
NATIONAL WEATHER SERVICE ALBANY NY
300 PM EDT THU JUL 02 2015

NOTE: "FAIR" INDICATES FEW OR NO CLOUDS BELOW 12,000 FEET WITH NO
SIGNIFICANT WEATHER AND/OR NO OBSTRUCTIONS TO VISIBILITY.

NYZ032-033-038>043-046>054-057>066-NYZ062>081-022000-
EAST


CITY           SKY/WX    TMP DP  RH WIND       PRES   REMARKS
ALBANY         MOSUNNY   76  52  43 NW14G21   29.91R
GLENS FALLS    MOSUNNY   76  50  40 W9        29.89R
POUGHKEEPSIE   CLOUDY    77  56  48 CALM      29.90R
NEWBURGH       MOSUNNY   75  59  57 W8        29.92S
MONTGOMERY     PTSUNNY   77  57  50 W3        29.90S
WHITE PLAINS   CLOUDY    76  57  51 NW6       29.90S
ISLIP          CLOUDY    75  58  55 S10       29.89R
NEW YORK CITY  CLOUDY    79  57  46 S13       29.88F
CENTRAL PARK   CLOUDY    76  59  55 CALM      29.91F
$$

NYZ005>009-017-018-044>046-055-056-022000-
CENTRAL


CITY           SKY/WX    TMP DP  RH WIND       PRES   REMARKS
FULTON         SUNNY     69  45  41 N9        29.96S
SYRACUSE       MOSUNNY   72  49  44 W13       29.94F
ROME           MOSUNNY   71  50  47 NW13      29.95S
ELMIRA         PTSUNNY   74  59  59 NE14      29.93F
BINGHAMTON     PTSUNNY   68  52  56 NW7       29.96S
MONTICELLO     CLOUDY    72  57  60 N7        29.95S
$$

NYZ026>034-041>043-022000-
NORTH


CITY           SKY/WX    TMP DP  RH WIND       PRES   REMARKS
WATERTOWN      SUNNY     68  51  54 W13       29.95F
FORT DRUM      NOT AVBL
MASSENA        MOSUNNY   72  46  39 W12G21    29.91F
SARANAC LAKE   SUNNY     66  40  38 NW9       29.92S
PLATTSBURGH    PTSUNNY   74  42  31 NW7G20    29.88S
$$

NYZ001>004-010>016-019>021-022000-
WEST


CITY           SKY/WX    TMP DP  RH WIND       PRES   REMARKS
NIAGARA FALLS  MOSUNNY   68  43  40 N7        29.98F
BUFFALO        MOSUNNY   71  50  47 N12       29.97F
DUNKIRK        SUNNY     68  54  60 N8        29.98F
JAMESTOWN      MOSUNNY   66  52  59 N9        29.98F
WELLSVILLE     MOSUNNY   71  54  54 VRB7      29.98F
ROCHESTER      MOSUNNY   70  48  45 VRB6      29.97F
PENN YAN       PTSUNNY   72  56  57 VRB6      29.96F
$$

             KEY
       WCI = WIND CHILL INDEX
       VSB = VISIBILITY
       HX  = HEAT INDEX
$$



USA.gov is the U.S. government's official web portal to all federal, state and local government web resources and services.